Preview of NWS' New Version of Forecast
This preview is not operational and should not be used for support decisions.
Latest weather observations around

Boston, Logan International Airport (KBOS)

Using English Units (Switch to International System of Units)
Date/ Time (EST) Wind (mph) Vis. (mi) Weather Sky Cond. Temp (°F) Rel. Humidity Wind Chill (°F) Heat Index (°F) Pressure Precip. (in)
Air Dwpt 6 hour Altimeter (inHg) Sea level (inHg) 1 hr 3 hr 6 hr
Max Min
Feb 19 21:54 SSW 15 9 Light Rain SCT009 BKN019 OVC035 48 46     93% 42   30.31 30.3 0 0  
Feb 19 21:36 SSW 16 5 Light Rain and Fog/Mist FEW009 BKN037 OVC055 48 46     93% 42   30.31   0    
Feb 19 20:54 SW 18 10 Light Rain FEW011 OVC038 48 45     89% 41   30.31 30.31 0    
Feb 19 19:54 SSW 14 10 Light Rain SCT039 SCT050 OVC090 47 44     90% 41   30.31 30.31 0    
Feb 19 18:54 S 9 10 Light Rain FEW040 BKN055 OVC090 45 42     90% 40   30.34 30.33 0   0
Feb 19 17:54 S 11 10 Light Rain SCT045 OVC100 46 40     79% 41   30.34 30.34 0    
Feb 19 16:54 SSW 15 10 Cloudy FEW031 BKN046 OVC220 49 39     69% 43   30.36 30.36      
Feb 19 15:54 SSW 17 10 Cloudy BKN047 BKN090 OVC220 48 38     68% 42   30.37 30.36      
Feb 19 14:54   10 Mostly Cloudy FEW033 SCT120 BKN220 49 36     61%     30.38 30.38      
Feb 19 12:54 SSW 17 10 Mostly Cloudy FEW033 FEW120 BKN200 46 35     65% 39   30.42 30.42      
Feb 19 11:54   10 Mostly Cloudy FEW030 FEW180 BKN250 45 32     60%     30.48 30.47      
Feb 19 10:54 SSW 17 10 Partly Cloudy FEW050 FEW140 SCT200 SCT250 43 31     62% 35   30.51 30.51      
Feb 19 09:54 S 13 10 Partly Cloudy FEW200 SCT250 40 29     65% 32   30.52 30.52      
Feb 19 08:54 SSW 13 10 Partly Cloudy FEW180 SCT250 37 28     70% 29   30.54 30.53      
Feb 19 07:54 S 6 10 Mostly Clear FEW250 31 26     82% 25   30.56 30.55      
Feb 19 06:54 SSW 7 10 Mostly Clear FEW120 FEW250 29 24     82% 22   30.56 30.56      
Feb 19 05:54 S 5 10 Mostly Clear FEW120 FEW250 27 23     85% 21   30.55 30.55      
Feb 19 04:54 SSW 5 10 Partly Cloudy SCT250 29 23     78% 24   30.54 30.54      
Feb 19 03:54 Calm 10 Partly Cloudy SCT250 29 22     75%     30.53 30.53      
Feb 19 02:54 SSW 6 10 Mostly Clear FEW250 30 23     75% 24   30.53 30.53      
Feb 19 01:54 SSW 6 10 Mostly Clear FEW250 30 24     78% 24   30.54 30.53      
Feb 19 00:54 SSW 6 10 Partly Cloudy SCT250 31 23     72% 25   30.54 30.53      
Feb 18 23:54 SSE 5 10 Partly Cloudy SCT250 34 22     61% 30   30.55 30.54      
Feb 18 22:54 WNW 7 10 Partly Cloudy SCT250 36 21     54% 30   30.53 30.53      
Feb 18 21:54 WNW 7 10 Mostly Clear FEW250 37 21     52% 32   30.52 30.52      
Feb 18 20:54 NW 7 10 Mostly Cloudy FEW220 BKN250 38 21     50% 33   30.49 30.49      
Feb 18 19:54 NNW 7 10 Mostly Clear FEW250 38 22     52% 33   30.46 30.45      
Feb 18 18:54 WNW 9 10 Mostly Clear FEW250 40 22     48% 34   30.43 30.42      
Feb 18 17:54 WNW 5 10 Mostly Clear FEW150 FEW220 41 22     46% 38   30.38 30.37      
Feb 18 16:54 NW 9 10 Mostly Clear FEW150 FEW220 42 22     44% 37   30.33 30.33      
Feb 18 15:54 WNW 8 10 Mostly Clear FEW050 FEW150 43 22     43% 38   30.3 30.3      
Feb 18 14:54 W 9 10 Partly Cloudy SCT060 42 23     46% 37   30.29 30.29      
Feb 18 13:54 NW 16 10 Partly Cloudy SCT035 41 25     53% 33   30.26 30.25      
Feb 18 12:54 WNW 15 10 Partly Cloudy SCT035 40 26     57% 32   30.2 30.2     0
Feb 18 11:54 NW 13 10 Mostly Clear FEW030 39 25     57% 31   30.18 30.17      
Feb 18 10:54   10 Mostly Clear FEW030 38 27     64%     30.2 30.2      
Feb 18 09:54   10 Clear CLR 36 28     73%     30.14 30.13   0  
Feb 18 08:54 NW 15 10 Mostly Clear FEW025 FEW120 34 29     82% 24   30.08 30.08      
Feb 18 07:54   3 Partly Cloudy FEW018 SCT035 SCT130 33 30     88%     30.03 30.02 0    
Feb 18 06:56 NW 10 3 Light Snow and Fog/Mist FEW007 SCT020 BKN035 BKN130 32 31     96% 24   29.98   0    
Feb 18 06:54 NW 10 2.5 Light Snow and Fog/Mist SCT007 BKN019 OVC028 32 31     96% 24   29.98 29.98 0   0
Feb 18 06:48 NW 10 3 Light Snow and Fog/Mist SCT007 BKN019 OVC028 32 30     93% 24   29.98   0    
Feb 18 06:40 NW 11 3 Light Snow and Fog/Mist BKN007 OVC022 32 31     96% 23   29.97   0    
Feb 18 06:11 WNW 14 1.5 Light Snow and Fog/Mist BKN006 OVC016 33 32     96% 23       0    
Feb 18 05:54 NW 10 1.5 Light Snow and Fog/Mist BKN004 OVC010 33 32     96% 25   29.93 29.93 0    
Feb 18 04:54 NNW 11 1.5 Light Snow and Fog/Mist BKN004 OVC011 33 32     96% 24   29.9 29.9 0    
Feb 18 03:54 N 6 1.5 Light Snow and Fog/Mist BKN004 OVC011 33 32     96% 28   29.88 29.88 0 0  
Feb 18 03:32 N 5 1.5 Light Snow and Fog/Mist BKN004 BKN011 OVC017 33 32     96% 29   29.89   0    
Feb 18 02:54 NE 8 1.5 Light Snow and Fog/Mist FEW004 BKN010 OVC017 32 32     100% 25   29.9 29.9 0    
Feb 18 02:01 NE 6 1.25 Light Snow and Fog/Mist FEW003 OVC010 32 32     100% 26   29.95   0    
Feb 18 01:54 NE 6 1 Light Snow and Fog/Mist FEW003 OVC007 32 32     100% 26   29.96 29.95 0    
Feb 18 00:54 ENE 7 1 Light Snow and Fog/Mist OVC006 33 32     96% 27   30.01 30 0   0
Feb 17 23:54 NE 5 0.75 Light Snow and Fog/Mist VV006 32 31     96% 27   30.06 30.06 0    
Feb 17 22:54 SSE 8 0.75 Light Snow and Fog/Mist BKN006 OVC012 32 30     92% 25   30.12 30.11 0    
Feb 17 21:54 SSE 10 1.5 Light Snow and Fog/Mist BKN006 OVC017 32 30     92% 24   30.16 30.16 0 0  
Feb 17 21:22 SSE 14 1 Light Snow and Fog/Mist BKN007 OVC015 32 29     88% 22   30.2   0    
Feb 17 21:06 SSE 13 1 Light Snow and Fog/Mist FEW007 OVC018 32 29     88% 22   30.21   0    
Feb 17 20:54 SSE 16 2 Light Snow and Fog/Mist OVC021 32 28     85% 21   30.22 30.21 0    
Feb 17 20:44 SSE 15 1.5 Light Snow and Fog/Mist OVC023 32 28     85% 22   30.22   0    
Feb 17 20:37 SSE 15 2 Light Snow OVC025 33 27     78% 23   30.22   0    
Feb 17 20:29 SSE 15 3 Light Snow OVC028 34 26     72% 24   30.22   0    
Feb 17 19:54 S 11 10 Cloudy BKN037 OVC044 34 25     69% 26   30.25 30.24      
Feb 17 18:54 S 16 10 Cloudy SCT035 OVC120 34 24     67% 24   30.27 30.27      
Feb 17 17:54   10 Cloudy SCT038 OVC140 35 24     64%     30.3 30.3      
Feb 17 15:54 ESE 14 10 Cloudy FEW035 OVC170 32 19     58% 22   30.33 30.33      
Feb 17 14:54 E 14 10 Cloudy FEW030 BKN180 OVC250 31 17     56% 21   30.35 30.35      
Feb 17 13:54 E 13 10 Mostly Cloudy FEW030 FEW150 BKN220 32 16     51% 22   30.33 30.33      
Feb 17 12:54 ESE 9 10 Partly Cloudy FEW030 FEW100 SCT250 33 11     39% 25   30.36 30.36      
Feb 17 11:54 ESE 10 10 Partly Cloudy FEW030 FEW220 SCT250 32 10     39% 24   30.4 30.39      
Feb 17 10:54 E 6 10 Partly Cloudy SCT250 32 4     30% 26   30.41 30.41      
Feb 17 09:54 N 5 10 Mostly Clear FEW250 32 4     30% 27   30.4 30.4      
Feb 17 08:54 NNW 11 10 Mostly Clear FEW250 30 7     37% 21   30.43 30.42      
Feb 17 07:54 NNW 16 10 Mostly Clear FEW030 FEW250 28 11     48% 16   30.4 30.4      
Feb 17 06:54 NNW 9 10 Mostly Clear FEW030 FEW250 27 12     53% 18   30.38 30.38      
Feb 17 05:54 NW 10 10 Clear CLR 28 12     51% 19   30.35 30.35      
Feb 17 04:54 NW 11 10 Clear CLR 28 12     51% 18   30.32 30.32      
Feb 17 03:54 NNW 10 10 Clear CLR 29 12     49% 20   30.26 30.26      
Feb 17 02:54 NW 11 10 Clear CLR 31 12     45% 22   30.23 30.22      
Feb 17 01:54 NNW 14 10 Mostly Clear FEW040 31 15     51% 21   30.18 30.18      
Feb 17 00:54 NNW 13 10 Mostly Clear FEW040 32 18     56% 22   30.13 30.13      
Feb 16 23:54 NNW 14 10 Mostly Clear FEW040 34 18     51% 25   30.1 30.09      
Feb 16 22:54 NNW 14 10 Mostly Clear FEW050 35 20     54% 26   30.03 30.03      
Feb 16 21:54 NNW 17 10 Partly Cloudy FEW040 SCT130 37 24     59% 27   29.97 29.96      
Jun 12 05:54 WSW 6 10 Mostly Clear FEW150 FEW250 72 63     73%   72 29.96 29.95      
Jun 10 18:54 S 14 10 Clear   78 55     45%   78 29.91 29.91      
Jun 09 12:54 SE 8 10 Mostly Cloudy FEW050 BKN140 BKN250 70        %     29.63 29.63      
Jun 09 00:54 NE 6 10 Cloudy OVC130 56 53     90%     29.81 29.81      
Jun 08 19:54 SE 9 10 Cloudy BKN130 OVC250 61        %     29.91 29.91      
Jun 08 08:54 SSE 6 10 Partly Cloudy SCT250 61 54     78%     30.05 30.04      
Jun 06 14:26   3 Light Rain and Fog/Mist SCT008 BKN012 OVC023 48 48     100%     29.85   0    
Jun 06 13:33 NNE 18 1.25 Rain and Fog/Mist SCT005 BKN010 OVC016 48 47     96% 41   29.86   0